EN

Hourly Weather Acambay

Today, 26 November, Thursday

Time Temperature Precipitation Wind Pressure Humidity
00:00 +11°C° 0 mm 1 mps 560 mmHg 53%
01:00 +11°C° 0 mm 1 mps 560 mmHg 52%
02:00 +10°C° 0 mm 1 mps 560 mmHg 51%
03:00 +10°C° 0 mm 1 mps 560 mmHg 51%
04:00 +10°C° 0 mm 1 mps 560 mmHg 51%
05:00 +10°C° 0 mm 1 mps 560 mmHg 50%
06:00 +12°C° 0 mm 1 mps 561 mmHg 45%
07:00 +14°C° 0 mm 1 mps 562 mmHg 41%
08:00 +16°C° 0 mm 1 mps 564 mmHg 37%
09:00 +19°C° 0 mm 1 mps 565 mmHg 33%
10:00 +22°C° 0 mm 1 mps 565 mmHg 29%
11:00 +24°C° 0 mm 1 mps 566 mmHg 25%
12:00 +24°C° 0 mm 2 mps 565 mmHg 24%
13:00 +24°C° 0 mm 2 mps 565 mmHg 23%
14:00 +24°C° 0 mm 3 mps 564 mmHg 23%
15:00 +21°C° 0 mm 3 mps 563 mmHg 28%
16:00 +19°C° 0 mm 3 mps 562 mmHg 33%
17:00 +17°C° 0 mm 3 mps 561 mmHg 37%
18:00 +16°C° 0 mm 2 mps 561 mmHg 41%
19:00 +15°C° 0 mm 2 mps 561 mmHg 45%
20:00 +13°C° 0 mm 1 mps 561 mmHg 49%
21:00 +13°C° 0 mm 1 mps 561 mmHg 49%
22:00 +12°C° 0 mm 1 mps 560 mmHg 50%
23:00 +12°C° 0 mm 1 mps 560 mmHg 51%

Tomorrow, 27 November, Friday

Time Temperature Precipitation Wind Pressure Humidity
00:00 +12°C° 0 mm 1 mps 560 mmHg 50%
01:00 +11°C° 0 mm 1 mps 559 mmHg 50%
02:00 +11°C° 0 mm 1 mps 559 mmHg 49%
03:00 +11°C° 0 mm 1 mps 559 mmHg 49%
04:00 +10°C° 0 mm 1 mps 559 mmHg 49%
05:00 +10°C° 0 mm 1 mps 559 mmHg 49%
06:00 +12°C° 0 mm 1 mps 560 mmHg 44%
07:00 +13°C° 0 mm 0 mps 562 mmHg 39%
08:00 +16°C° 0 mm 0 mps 563 mmHg 34%
09:00 +19°C° 0 mm 1 mps 564 mmHg 30%
10:00 +20°C° 0 mm 2 mps 564 mmHg 25%
11:00 +22°C° 0 mm 3 mps 565 mmHg 20%
12:00 +22°C° 0 mm 3 mps 564 mmHg 20%
13:00 +24°C° 0 mm 3 mps 564 mmHg 20%
14:00 +24°C° 0 mm 3 mps 563 mmHg 19%
15:00 +21°C° 0 mm 3 mps 562 mmHg 24%
16:00 +18°C° 0 mm 3 mps 561 mmHg 28%
17:00 +16°C° 0 mm 2 mps 560 mmHg 33%
18:00 +15°C° 0 mm 2 mps 560 mmHg 36%
19:00 +14°C° 0 mm 2 mps 560 mmHg 38%
20:00 +13°C° 0 mm 1 mps 560 mmHg 41%
21:00 +12°C° 0 mm 1 mps 560 mmHg 42%
22:00 +12°C° 0 mm 1 mps 559 mmHg 43%
23:00 +12°C° 0 mm 1 mps 559 mmHg 44%

Day after tomorrow, 28 November, Saturday

Time Temperature Precipitation Wind Pressure Humidity
00:00 +11°C° 0 mm 1 mps 559 mmHg 44%
01:00 +11°C° 0 mm 1 mps 559 mmHg 44%
02:00 +10°C° 0 mm 1 mps 558 mmHg 44%
03:00 +10°C° 0 mm 1 mps 558 mmHg 44%
04:00 +10°C° 0 mm 1 mps 558 mmHg 45%
05:00 +9°C° 0 mm 1 mps 558 mmHg 45%
06:00 +12°C° 0 mm 1 mps 559 mmHg 41%
07:00 +14°C° 0 mm 1 mps 561 mmHg 37%
08:00 +16°C° 0 mm 1 mps 562 mmHg 33%
09:00 +19°C° 0 mm 1 mps 563 mmHg 28%
10:00 +21°C° 0 mm 1 mps 564 mmHg 23%
11:00 +24°C° 0 mm 1 mps 565 mmHg 19%
12:00 +24°C° 0 mm 2 mps 564 mmHg 18%
13:00 +24°C° 0 mm 2 mps 564 mmHg 17%
14:00 +24°C° 0 mm 2 mps 563 mmHg 17%
15:00 +21°C° 0 mm 2 mps 562 mmHg 21%
16:00 +19°C° 0 mm 2 mps 561 mmHg 26%
17:00 +16°C° 0 mm 2 mps 560 mmHg 31%
18:00 +15°C° 0 mm 2 mps 560 mmHg 35%
19:00 +14°C° 0 mm 2 mps 560 mmHg 39%
20:00 +13°C° 0 mm 1 mps 560 mmHg 43%
21:00 +12°C° 0 mm 1 mps 560 mmHg 45%
22:00 +12°C° 0 mm 1 mps 560 mmHg 47%
23:00 +11°C° 0 mm 1 mps 559 mmHg 49%

29 November, Sunday

Time Temperature Precipitation Wind Pressure Humidity
00:00 +11°C° 0 mm 1 mps 559 mmHg 51%
01:00 +10°C° 0 mm 1 mps 559 mmHg 53%
02:00 +10°C° 0 mm 1 mps 558 mmHg 55%
03:00 +9°C° 0 mm 1 mps 558 mmHg 58%
04:00 +8°C° 0 mm 0 mps 558 mmHg 60%
05:00 +8°C° 0 mm 0 mps 558 mmHg 62%
06:00 +11°C° 0 mm 1 mps 560 mmHg 57%
07:00 +13°C° 0 mm 1 mps 561 mmHg 52%
08:00 +15°C° 0 mm 1 mps 563 mmHg 47%
09:00 +18°C° 0 mm 1 mps 564 mmHg 41%
10:00 +21°C° 0 mm 1 mps 564 mmHg 35%
11:00 +23°C° 0 mm 1 mps 565 mmHg 29%
12:00 +23°C° 0 mm 1 mps 565 mmHg 28%
13:00 +24°C° 0 mm 2 mps 564 mmHg 27%
14:00 +24°C° 0 mm 2 mps 564 mmHg 26%
15:00 +21°C° 0 mm 2 mps 563 mmHg 35%
16:00 +18°C° 0 mm 2 mps 562 mmHg 44%
17:00 +16°C° 0 mm 2 mps 561 mmHg 53%
18:00 +15°C° 0 mm 2 mps 561 mmHg 61%
19:00 +13°C° 0 mm 1 mps 561 mmHg 69%
20:00 +12°C° 0 mm 1 mps 561 mmHg 77%
21:00 +11°C° 0 mm 1 mps 561 mmHg 82%
22:00 +11°C° 0 mm 1 mps 561 mmHg 86%
23:00 +10°C° 0 mm 1 mps 561 mmHg 90%

30 November, Monday

Time Temperature Precipitation Wind Pressure Humidity
00:00 +10°C° 0 mm 1 mps 561 mmHg 90%
01:00 +10°C° 0 mm 1 mps 561 mmHg 91%
02:00 +10°C° 0 mm 1 mps 560 mmHg 92%
03:00 +10°C° 0 mm 1 mps 561 mmHg 92%
04:00 +10°C° 0 mm 1 mps 561 mmHg 92%
05:00 +10°C° 0 mm 1 mps 561 mmHg 92%
06:00 +10°C° 0 mm 1 mps 561 mmHg 89%
07:00 +11°C° 0 mm 1 mps 562 mmHg 86%
08:00 +12°C° 0 mm 1 mps 563 mmHg 83%
09:00 +13°C° 0 mm 1 mps 563 mmHg 76%
10:00 +15°C° 0 mm 1 mps 564 mmHg 70%
11:00 +16°C° 0 mm 1 mps 564 mmHg 63%
12:00 +17°C° 0 mm 2 mps 564 mmHg 58%
13:00 +18°C° 0 mm 2 mps 564 mmHg 53%
14:00 +19°C° 0 mm 3 mps 563 mmHg 48%
15:00 +17°C° 0 mm 2 mps 562 mmHg 56%
16:00 +15°C° 0 mm 2 mps 561 mmHg 64%
17:00 +13°C° 0 mm 2 mps 561 mmHg 72%
18:00 +11°C° 0 mm 1 mps 560 mmHg 77%
19:00 +10°C° 0 mm 1 mps 560 mmHg 81%
20:00 +9°C° 0 mm 1 mps 560 mmHg 86%
21:00 +9°C° 0 mm 1 mps 560 mmHg 88%
22:00 +9°C° 0 mm 1 mps 560 mmHg 89%
23:00 +9°C° 0 mm 1 mps 560 mmHg 91%

1 December, Tuesday

Time Temperature Precipitation Wind Pressure Humidity
00:00 +9°C° 0 mm 1 mps 560 mmHg 92%
01:00 +9°C° 0 mm 1 mps 560 mmHg 93%
02:00 +9°C° 0 mm 1 mps 559 mmHg 93%
03:00 +9°C° 0 mm 1 mps 559 mmHg 93%
04:00 +9°C° 0 mm 1 mps 559 mmHg 93%
05:00 +9°C° 0 mm 1 mps 559 mmHg 93%
06:00 +10°C° 0 mm 2 mps 560 mmHg 87%
07:00 +12°C° 0 mm 2 mps 561 mmHg 80%
08:00 +14°C° 0 mm 2 mps 562 mmHg 74%
09:00 +16°C° 0 mm 3 mps 562 mmHg 64%
10:00 +18°C° 0 mm 4 mps 563 mmHg 53%
11:00 +20°C° 0 mm 5 mps 563 mmHg 43%
12:00 +20°C° 0 mm 5 mps 563 mmHg 42%
13:00 +20°C° 0 mm 5 mps 562 mmHg 40%
14:00 +20°C° 0 mm 5 mps 561 mmHg 39%
15:00 +18°C° 0 mm 4 mps 560 mmHg 48%
16:00 +16°C° 0 mm 3 mps 560 mmHg 57%
17:00 +13°C° 0 mm 3 mps 559 mmHg 66%
18:00 +13°C° 0 mm 2 mps 559 mmHg 72%
19:00 +12°C° 0 mm 2 mps 559 mmHg 77%
20:00 +10°C° 0 mm 2 mps 559 mmHg 83%
21:00 +10°C° 0 mm 2 mps 559 mmHg 86%
22:00 +9°C° 0 mm 2 mps 558 mmHg 89%
23:00 +9°C° 0 mm 2 mps 558 mmHg 91%
Show more